Wind_Speed
31 31 31 32 33 33 33 34 33 31 30 28 25 23 21 19 18 17 17 18 19 21 22 24 26 28 30 32 34 36 37 38 39 39 38 38 38 38 36 36 35 35 36
30 30 31 32 33 34 35 35 34 32 30 27 25 22 19 17 16 16 17 18 20 21 23 24 26 28 30 31 34 36 37 37 38 38 38 37 36 34 35 34 33 32 33
30 31 33 34 35 35 36 35 33 32 30 27 25 22 20 19 19 19 20 21 21 22 23 25 27 28 30 31 32 35 36 37 37 38 38 36 33 33 31 31 29 29 29
31 32 33 34 35 35 35 34 33 33 30 28 26 24 23 23 22 23 24 24 24 24 25 26 27 29 29 30 31 33 35 36 37 37 37 35 33 32 30 28 28 28 27
28 30 31 32 33 33 34 34 33 32 31 29 28 27 27 27 26 27 27 27 26 26 26 26 27 29 30 30 30 32 33 35 36 37 37 36 35 33 31 29 29 29 28
26 27 29 30 31 33 33 35 34 33 32 31 31 31 31 31 31 30 30 29 28 27 27 27 29 30 30 30 31 31 32 33 35 36 37 38 36 35 34 33 32 31 30
23 26 28 30 32 33 34 35 36 35 34 34 34 34 34 34 34 33 32 31 30 29 28 28 29 30 30 31 31 31 32 32 33 34 36 37 38 37 37 36 35 34 33
25 27 29 31 33 35 37 38 38 38 37 37 37 37 37 36 35 34 33 32 31 30 29 28 29 30 30 31 31 31 32 31 31 32 33 35 37 38 38 37 36 36 35
28 30 32 33 35 37 38 39 40 41 41 40 39 39 38 38 37 36 35 33 32 31 30 30 29 30 30 30 31 31 32 31 30 31 32 33 34 36 37 37 37 37 37
33 34 35 37 38 40 42 43 44 45 45 44 43 42 41 40 38 37 36 35 34 32 31 31 30 30 30 30 31 31 31 30 30 30 31 31 33 34 35 36 37 37 37
37 39 41 42 43 45 46 47 48 49 49 48 47 46 45 43 42 40 39 38 36 35 33 32 31 31 31 30 30 30 30 30 29 29 29 29 31 32 33 34 35 35 35
41 43 45 46 47 48 49 51 51 52 53 53 52 51 50 49 47 45 42 40 39 37 35 34 33 32 31 31 30 30 30 30 29 28 27 27 28 29 30 31 32 33 33
44 46 47 48 50 51 52 53 54 55 56 56 56 56 56 55 54 51 47 46 44 41 38 37 36 34 33 32 31 30 29 29 28 27 27 26 26 27 28 29 30 30 31
47 48 49 50 51 53 54 56 57 59 60 60 61 61 62 61 59 57 54 52 50 47 44 42 40 38 36 34 32 31 30 29 28 27 27 25 24 24 26 27 28 28 29
49 50 51 52 54 56 58 60 63 65 67 68 68 68 67 66 65 63 60 58 56 53 50 47 44 41 38 36 34 32 31 29 28 27 26 24 23 22 23 23 25 26 26
52 54 56 58 61 63 65 68 70 72 74 74 75 76 75 74 72 70 67 65 63 60 56 52 49 45 42 39 36 34 32 30 28 27 25 24 23 22 21 21 23 25 26
60 62 65 67 69 71 74 76 78 80 81 82 82 83 82 81 78 76 73 71 69 66 62 56 51 47 44 41 38 36 33 31 29 27 25 24 22 22 22 22 23 25 27
67 70 73 75 76 77 79 80 81 82 83 83 83 84 84 83 81 80 78 76 73 69 65 58 52 48 45 42 39 37 34 31 29 27 25 23 22 21 22 22 24 24 24
74 75 75 75 74 73 72 71 71 70 71 72 73 73 73 73 73 72 72 70 68 65 61 56 52 48 46 43 40 37 34 31 29 27 24 23 22 21 21 22 23 23 24
73 70 67 64 60 57 55 53 51 50 51 51 52 53 53 53 54 55 55 56 56 56 54 52 49 46 44 42 40 37 33 30 28 25 24 22 21 20 21 20 20 21 21
62 57 52 47 43 40 39 37 36 35 35 34 34 33 34 34 35 37 39 40 42 44 46 47 47 46 44 41 39 36 33 30 27 25 23 20 19 18 18 18 18 18 18
48 44 39 36 34 33 33 32 31 31 32 31 29 28 28 28 28 27 28 29 31 33 37 41 44 46 46 42 39 37 33 30 27 24 22 20 19 18 18 18 17 17 16
39 36 34 33 33 33 34 34 34 34 33 32 30 28 26 26 25 25 26 27 28 29 30 34 40 45 46 44 40 36 33 30 27 25 22 21 20 20 19 19 18 17 17
36 36 37 37 37 37 37 37 37 37 36 34 32 30 29 28 27 26 26 26 27 29 29 32 39 43 44 43 39 36 33 30 28 25 24 22 20 20 20 19 19 18 17
38 40 41 41 41 41 41 41 40 40 39 37 35 33 31 30 29 27 26 26 26 28 30 32 37 41 42 43 39 36 34 31 28 27 25 23 22 21 21 20 19 18 17
42 43 44 45 45 45 44 43 43 42 41 39 37 34 33 31 30 28 27 26 26 28 30 33 35 39 42 43 40 37 35 33 31 29 27 25 24 23 22 20 19 18 17
Wind_Direction
273 274 277 281 285 288 290 292 295 294 295 295 295 294 292 292 294 297 301 304 307 309 310 308 304 300 296 293 289 286 284 282 279 278 278 277 275 274 275 273 272 267 262
269 271 276 279 282 284 286 288 292 292 292 293 294 292 292 293 296 301 305 307 309 311 313 313 311 307 302 297 292 289 285 282 280 279 278 278 277 277 275 274 273 269 264
270 273 275 277 279 280 283 285 287 288 291 290 291 290 291 293 296 299 302 306 308 311 312 314 313 311 307 302 295 290 286 282 281 280 279 278 276 274 273 273 273 272 267
271 272 272 274 276 277 279 280 282 286 288 289 290 290 291 291 291 294 296 300 304 308 310 312 313 313 310 306 300 293 288 283 280 279 278 276 273 272 271 270 272 274 270
271 272 272 273 274 275 278 279 283 284 285 287 288 289 288 288 288 289 291 293 296 301 305 309 312 314 312 309 305 299 292 286 281 278 275 273 271 269 269 267 268 270 270
275 274 273 273 272 274 275 278 281 283 284 285 287 287 286 285 286 286 287 289 291 296 301 306 310 313 313 310 307 305 298 291 284 279 274 271 269 267 266 265 264 264 265
276 275 273 272 273 274 276 280 283 283 283 284 284 284 284 283 284 284 285 287 289 292 297 302 307 310 311 311 309 307 303 296 288 281 275 270 267 265 264 264 263 263 263
276 275 275 275 276 278 279 281 282 282 282 282 282 281 281 282 283 283 284 286 288 290 293 298 302 305 308 309 309 308 306 300 292 285 279 272 268 265 263 263 262 262 262
277 276 276 276 276 277 278 278 280 281 281 281 280 280 280 282 283 283 284 285 287 289 292 295 299 302 304 306 307 308 307 303 298 290 282 276 270 266 263 262 261 262 261
279 278 277 277 277 277 277 278 279 280 281 281 281 281 281 282 283 283 284 285 286 288 290 293 295 298 301 303 305 307 307 304 300 294 286 278 272 267 264 261 260 260 260
279 278 278 277 277 277 277 278 278 279 280 281 281 281 281 282 282 283 284 285 286 287 288 291 293 296 298 300 302 304 305 304 302 298 290 281 273 268 263 261 259 258 257
279 278 278 277 277 277 277 277 277 278 278 279 280 281 282 282 282 282 283 285 286 286 286 289 290 293 295 296 298 300 303 303 301 298 293 284 275 268 263 260 257 255 253
283 282 281 279 279 278 278 277 277 276 277 278 278 279 280 281 281 280 281 282 283 283 284 286 287 289 291 292 294 295 299 300 299 296 293 286 277 269 262 257 254 251 250
287 285 283 282 280 279 278 278 278 277 277 277 277 278 278 278 279 279 279 279 280 279 280 282 284 286 287 287 288 291 293 295 294 293 291 286 278 270 262 255 251 247 245
291 289 287 284 283 281 280 280 279 277 276 274 273 273 273 273 274 275 275 276 276 277 277 279 281 282 283 284 284 286 287 289 289 288 286 282 276 270 262 252 246 244 242
292 290 288 285 283 281 279 277 276 274 273 272 272 270 269 269 270 270 271 272 273 275 275 275 277 277 277 278 278 280 281 282 283 283 282 278 272 268 259 251 247 241 238
293 291 288 285 282 280 278 277 276 275 273 273 274 273 273 272 271 271 272 273 273 274 274 274 273 273 273 272 272 273 274 276 277 277 277 274 270 265 257 250 245 241 238
294 292 290 288 286 284 282 281 279 278 276 275 274 274 274 273 273 273 272 272 272 272 271 270 267 266 266 265 266 265 267 268 269 271 271 269 265 260 255 248 243 241 239
298 296 295 294 292 291 289 287 285 283 281 279 278 276 275 273 272 271 270 269 267 266 265 263 260 258 257 257 258 258 258 261 262 264 264 262 258 252 247 244 240 238 235
302 301 300 299 299 298 297 295 293 291 288 285 282 280 278 275 272 269 266 264 261 259 256 252 249 246 245 247 249 249 249 251 253 254 254 253 249 244 238 235 233 230 227
306 306 306 306 307 306 305 305 304 301 298 295 292 289 285 280 275 269 264 259 256 254 249 243 238 233 231 234 238 240 241 242 243 243 243 241 236 232 229 227 223 217 214
311 310 311 312 312 311 309 309 307 304 300 299 296 292 287 282 277 270 261 255 252 248 244 235 228 223 221 222 226 231 231 233 234 233 232 228 224 222 218 214 210 204 199
313 312 312 312 311 309 307 307 306 303 300 298 296 293 288 284 279 273 266 258 252 246 241 231 222 218 216 214 217 219 222 223 223 222 219 215 213 209 205 201 199 196 190
312 311 310 309 308 306 304 303 301 299 298 296 293 289 286 282 278 273 268 262 255 246 240 232 224 218 213 210 210 209 213 214 213 211 207 203 200 197 196 194 191 187 185
312 310 310 308 307 304 302 300 298 296 294 292 289 286 282 279 277 272 266 261 257 250 243 234 226 219 212 206 204 202 205 205 203 202 197 194 192 191 190 187 185 186 186
313 311 310 308 305 303 301 299 296 294 292 290 285 281 278 275 272 268 263 259 256 251 243 231 223 217 208 201 196 195 196 196 196 194 191 190 190 189 188 186 185 185 185
Height
5885 5884 5882 5880 5878 5876 5873 5871 5869 5866 5865 5863 5861 5858 5856 5854 5852 5849 5847 5845 5842 5840 5837 5835 5832 5829 5826 5824 5822 5819 5818 5817 5815 5813 5813 5813 5813 5813 5813 5812 5812 5813 5814
5878 5877 5875 5874 5871 5869 5867 5865 5862 5860 5858 5856 5854 5852 5850 5848 5846 5844 5841 5839 5836 5834 5831 5828 5825 5822 5819 5816 5813 5811 5809 5808 5806 5805 5804 5804 5805 5805 5804 5804 5804 5804 5805
5872 5870 5868 5866 5864 5862 5860 5857 5856 5854 5852 5850 5848 5846 5844 5842 5840 5838 5835 5833 5830 5828 5825 5822 5818 5815 5811 5808 5805 5802 5800 5799 5797 5795 5795 5796 5797 5797 5796 5796 5796 5796 5796
5864 5863 5861 5858 5856 5854 5852 5850 5848 5847 5845 5843 5842 5840 5838 5836 5834 5832 5829 5827 5824 5821 5818 5815 5811 5808 5804 5800 5797 5794 5792 5790 5789 5787 5786 5787 5788 5788 5789 5789 5789 5789 5790
5856 5854 5853 5851 5849 5847 5845 5842 5841 5840 5838 5837 5835 5833 5831 5829 5828 5825 5823 5820 5818 5815 5812 5808 5805 5801 5797 5793 5789 5786 5783 5781 5779 5778 5778 5778 5779 5780 5781 5782 5782 5782 5783
5849 5847 5845 5844 5841 5839 5837 5835 5833 5832 5831 5829 5828 5826 5824 5822 5820 5818 5816 5813 5811 5808 5804 5801 5797 5793 5789 5786 5782 5778 5775 5772 5770 5769 5769 5769 5770 5771 5772 5774 5775 5775 5776
5842 5840 5838 5836 5834 5832 5830 5827 5826 5824 5823 5821 5820 5818 5816 5814 5812 5810 5808 5805 5803 5800 5797 5793 5790 5786 5782 5778 5774 5771 5767 5764 5762 5760 5759 5759 5761 5762 5763 5765 5766 5767 5768
5835 5833 5831 5829 5827 5824 5822 5819 5817 5815 5814 5813 5811 5809 5807 5805 5803 5801 5799 5796 5794 5792 5789 5786 5782 5778 5775 5771 5767 5763 5759 5756 5753 5751 5750 5749 5750 5751 5753 5755 5756 5757 5758
5829 5826 5824 5821 5818 5816 5813 5810 5808 5805 5804 5802 5801 5799 5797 5795 5793 5791 5789 5787 5784 5782 5780 5777 5774 5770 5767 5763 5759 5755 5752 5748 5745 5743 5741 5740 5741 5741 5743 5745 5746 5748 5749
5820 5818 5815 5812 5809 5806 5803 5800 5797 5795 5793 5791 5789 5787 5786 5784 5782 5780 5778 5776 5774 5772 5770 5768 5765 5762 5759 5755 5751 5748 5744 5741 5737 5735 5733 5732 5731 5732 5733 5734 5736 5737 5739
5811 5808 5805 5802 5798 5795 5792 5789 5785 5783 5780 5777 5776 5774 5773 5771 5770 5768 5766 5765 5763 5761 5760 5758 5755 5753 5750 5747 5744 5740 5737 5733 5730 5727 5725 5723 5722 5722 5723 5724 5726 5727 5729
5800 5797 5793 5789 5785 5782 5779 5775 5772 5769 5766 5763 5761 5759 5758 5756 5755 5754 5753 5752 5751 5750 5748 5747 5745 5743 5741 5738 5735 5732 5729 5726 5723 5720 5717 5715 5714 5714 5714 5715 5717 5718 5720
5789 5784 5780 5776 5772 5768 5764 5760 5757 5754 5751 5748 5745 5743 5741 5740 5739 5738 5738 5738 5738 5737 5736 5735 5734 5733 5731 5729 5726 5724 5721 5718 5715 5712 5710 5707 5706 5705 5706 5707 5708 5710 5712
5775 5771 5766 5761 5757 5752 5748 5744 5740 5736 5733 5730 5727 5725 5723 5722 5721 5721 5721 5722 5722 5723 5723 5722 5722 5721 5720 5719 5717 5715 5713 5710 5708 5705 5703 5700 5699 5698 5698 5699 5700 5702 5704
5760 5755 5750 5745 5740 5735 5730 5726 5721 5717 5714 5710 5707 5705 5703 5702 5702 5702 5702 5703 5705 5706 5707 5708 5708 5709 5708 5708 5707 5706 5704 5702 5700 5698 5696 5694 5692 5691 5691 5692 5693 5695 5697
5744 5738 5732 5727 5722 5716 5711 5706 5701 5697 5692 5688 5685 5682 5680 5679 5680 5680 5682 5683 5686 5688 5690 5692 5694 5695 5696 5696 5696 5695 5694 5693 5691 5690 5688 5687 5685 5685 5684 5685 5687 5689 5690
5726 5719 5712 5706 5700 5694 5688 5683 5678 5673 5668 5664 5661 5657 5656 5655 5655 5656 5658 5660 5664 5667 5671 5674 5677 5679 5681 5683 5684 5685 5684 5684 5683 5681 5680 5679 5679 5678 5678 5679 5680 5682 5684
5706 5697 5689 5681 5674 5667 5660 5655 5650 5644 5640 5637 5634 5632 5631 5630 5630 5632 5634 5637 5641 5646 5650 5655 5659 5663 5666 5669 5672 5673 5674 5674 5674 5673 5673 5672 5672 5672 5672 5673 5675 5676 5679
5682 5672 5663 5654 5646 5638 5631 5626 5621 5616 5612 5608 5606 5604 5604 5604 5604 5606 5609 5613 5617 5622 5628 5635 5641 5646 5651 5655 5658 5661 5663 5664 5665 5665 5665 5665 5665 5666 5667 5668 5669 5671 5673
5657 5647 5638 5630 5622 5615 5608 5603 5599 5594 5590 5587 5584 5583 5581 5581 5581 5583 5586 5589 5594 5600 5606 5614 5621 5628 5635 5640 5645 5649 5652 5654 5656 5657 5657 5658 5659 5660 5662 5663 5664 5666 5669
5635 5626 5618 5612 5606 5600 5594 5589 5585 5580 5576 5572 5570 5568 5567 5566 5566 5566 5568 5571 5575 5580 5586 5593 5602 5610 5618 5625 5632 5637 5642 5644 5646 5648 5650 5651 5653 5655 5657 5659 5661 5663 5665
5619 5611 5605 5600 5595 5590 5584 5580 5575 5571 5567 5564 5561 5559 5557 5556 5555 5555 5556 5558 5561 5565 5570 5576 5583 5593 5602 5610 5618 5625 5631 5635 5638 5641 5643 5646 5648 5651 5653 5656 5658 5660 5663
5608 5601 5596 5591 5586 5581 5575 5570 5566 5562 5558 5555 5552 5550 5549 5547 5546 5546 5547 5548 5550 5553 5557 5562 5569 5577 5587 5596 5605 5613 5620 5625 5630 5634 5637 5641 5644 5647 5650 5653 5656 5659 5662
5598 5593 5587 5581 5576 5571 5565 5560 5556 5551 5548 5545 5543 5541 5539 5538 5538 5537 5537 5538 5540 5543 5546 5551 5557 5564 5574 5584 5594 5603 5610 5617 5623 5627 5631 5635 5640 5644 5647 5651 5654 5657 5660
5589 5582 5576 5570 5564 5558 5553 5548 5543 5539 5535 5533 5531 5529 5528 5528 5527 5527 5528 5529 5531 5533 5536 5540 5545 5553 5562 5574 5584 5594 5602 5610 5617 5622 5627 5632 5637 5641 5645 5649 5652 5656 5659
5578 5571 5564 5557 5550 5544 5539 5534 5529 5525 5521 5519 5517 5516 5516 5516 5516 5517 5517 5519 5521 5523 5526 5530 5535 5543 5552 5564 5575 5585 5595 5603 5610 5617 5623 5628 5634 5639 5643 5647 5651 5654 5658